Time,TemperatureF,DewpointF,PressureIn,WindDirection,WindDirectionDegrees,WindSpeedMPH,WindSpeedGustMPH,Humidity,HourlyPrecipIn,Conditions,Clouds,dailyrainin,SoftwareType,DateUTC
2013-01-29 00:09:00,43.5,38.0,30.10,SSE,148,0.0,1.0,80,0.00,,,0.00,weatherlink.com 1.10,2013-01-29 07:09:00,
2013-01-29 00:24:00,42.6,38.0,30.11,SSE,167,0.0,0.0,83,0.00,,,0.00,weatherlink.com 1.10,2013-01-29 07:24:00,
2013-01-29 00:39:00,43.0,38.0,30.11,ESE,114,0.0,0.0,81,0.00,,,0.00,weatherlink.com 1.10,2013-01-29 07:39:00,
2013-01-29 00:55:00,42.9,37.0,30.11,SSE,156,0.0,0.0,81,0.00,,,0.00,weatherlink.com 1.10,2013-01-29 07:55:00,
2013-01-29 01:09:00,42.1,38.0,30.11,South,186,0.0,2.0,84,0.00,,,0.00,weatherlink.com 1.10,2013-01-29 08:09:00,
2013-01-29 01:25:00,42.2,37.0,30.11,SW,221,0.0,2.0,83,0.00,,,0.00,weatherlink.com 1.10,2013-01-29 08:25:00,
2013-01-29 01:40:00,42.3,37.0,30.11,SE,142,1.0,2.0,82,0.00,,,0.00,weatherlink.com 1.10,2013-01-29 08:40:00,
2013-01-29 01:55:00,42.3,37.0,30.11,SSE,160,0.0,1.0,81,0.00,,,0.00,weatherlink.com 1.10,2013-01-29 08:55:00,
2013-01-29 02:10:00,42.9,37.0,30.11,SE,140,1.0,1.0,79,0.00,,,0.00,weatherlink.com 1.10,2013-01-29 09:10:00,
2013-01-29 02:25:00,42.6,37.0,30.11,South,172,1.0,1.0,79,0.00,,,0.00,weatherlink.com 1.10,2013-01-29 09:25:00,
2013-01-29 02:40:00,42.1,36.0,30.11,SE,142,0.0,1.0,80,0.00,,,0.00,weatherlink.com 1.10,2013-01-29 09:40:00,
2013-01-29 02:55:00,41.8,36.0,30.11,SE,146,1.0,1.0,80,0.00,,,0.00,weatherlink.com 1.10,2013-01-29 09:55:00,
2013-01-29 03:10:00,41.3,36.0,30.11,SE,133,1.0,2.0,81,0.00,,,0.00,weatherlink.com 1.10,2013-01-29 10:10:00,
2013-01-29 03:25:00,41.1,36.0,30.11,SE,141,0.0,1.0,81,0.00,,,0.00,weatherlink.com 1.10,2013-01-29 10:25:00,
2013-01-29 03:40:00,40.3,36.0,30.12,SSE,149,0.0,1.0,83,0.00,,,0.00,weatherlink.com 1.10,2013-01-29 10:40:00,
2013-01-29 03:55:00,40.7,35.0,30.11,SE,145,0.0,1.0,81,0.00,,,0.00,weatherlink.com 1.10,2013-01-29 10:55:00,
2013-01-29 04:10:00,40.4,36.0,30.11,SSW,201,0.0,1.0,83,0.00,,,0.00,weatherlink.com 1.10,2013-01-29 11:10:00,
2013-01-29 04:25:00,39.6,36.0,30.12,SE,142,0.0,1.0,85,0.00,,,0.00,weatherlink.com 1.10,2013-01-29 11:25:00,
2013-01-29 04:40:00,39.5,35.0,30.12,SE,145,0.0,0.0,85,0.00,,,0.00,weatherlink.com 1.10,2013-01-29 11:40:00,
2013-01-29 04:55:00,40.3,35.0,30.11,ESE,123,1.0,1.0,82,0.00,,,0.00,weatherlink.com 1.10,2013-01-29 11:55:00,
2013-01-29 05:10:00,40.8,35.0,30.11,SE,128,1.0,2.0,80,0.00,,,0.00,weatherlink.com 1.10,2013-01-29 12:10:00,
2013-01-29 05:25:00,40.1,35.0,30.11,SSE,148,0.0,0.0,82,0.00,,,0.00,weatherlink.com 1.10,2013-01-29 12:25:00,
2013-01-29 05:40:00,39.4,35.0,30.11,South,186,0.0,0.0,84,0.00,,,0.00,weatherlink.com 1.10,2013-01-29 12:40:00,
2013-01-29 05:55:00,38.6,35.0,30.11,South,189,0.0,1.0,86,0.00,,,0.00,weatherlink.com 1.10,2013-01-29 12:55:00,
2013-01-29 06:10:00,40.0,35.0,30.12,WSW,239,2.0,5.0,83,0.00,,,0.00,weatherlink.com 1.10,2013-01-29 13:10:00,
2013-01-29 06:25:00,39.6,35.0,30.12,SW,236,0.0,1.0,83,0.00,,,0.00,weatherlink.com 1.10,2013-01-29 13:25:00,
2013-01-29 06:40:00,38.9,35.0,30.13,ENE,59,0.0,1.0,85,0.00,,,0.00,weatherlink.com 1.10,2013-01-29 13:40:00,
2013-01-29 06:55:00,38.8,35.0,30.13,ENE,60,0.0,0.0,86,0.00,,,0.00,weatherlink.com 1.10,2013-01-29 13:55:00,
2013-01-29 07:10:00,37.7,35.0,30.13,ENE,60,0.0,0.0,88,0.00,,,0.00,weatherlink.com 1.10,2013-01-29 14:10:00,
2013-01-29 07:25:00,36.4,33.0,30.13,SSW,197,0.0,2.0,88,0.00,,,0.00,weatherlink.com 1.10,2013-01-29 14:25:00,
2013-01-29 07:40:00,36.7,34.0,30.13,SE,136,0.0,1.0,89,0.00,,,0.00,weatherlink.com 1.10,2013-01-29 14:40:00,
2013-01-29 07:55:00,38.1,35.0,30.14,SE,136,0.0,0.0,87,0.00,,,0.00,weatherlink.com 1.10,2013-01-29 14:55:00,
2013-01-29 08:10:00,40.9,36.0,30.15,SE,134,0.0,1.0,81,0.00,,,0.00,weatherlink.com 1.10,2013-01-29 15:10:00,
2013-01-29 08:25:00,42.3,36.0,30.16,SSE,166,0.0,1.0,78,0.00,,,0.00,weatherlink.com 1.10,2013-01-29 15:25:00,
2013-01-29 08:40:00,43.9,37.0,30.16,SSE,165,0.0,0.0,76,0.00,,,0.00,weatherlink.com 1.10,2013-01-29 15:40:00,
2013-01-29 08:55:00,45.7,38.0,30.16,SSW,194,1.0,2.0,74,0.00,,,0.00,weatherlink.com 1.10,2013-01-29 15:55:00,
2013-01-29 09:10:00,46.8,38.0,30.16,SE,143,0.0,3.0,71,0.00,,,0.00,weatherlink.com 1.10,2013-01-29 16:10:00,
2013-01-29 09:26:00,47.9,38.0,30.17,South,174,0.0,2.0,68,0.00,,,0.00,weatherlink.com 1.10,2013-01-29 16:26:00,
2013-01-29 09:41:00,49.8,37.0,30.16,SE,139,3.0,3.0,62,0.00,,,0.00,weatherlink.com 1.10,2013-01-29 16:41:00,
2013-01-29 09:56:00,50.4,38.0,30.16,SSE,163,1.0,5.0,63,0.00,,,0.00,weatherlink.com 1.10,2013-01-29 16:56:00,
2013-01-29 10:11:00,53.1,38.0,30.16,South,174,2.0,3.0,56,0.00,,,0.00,weatherlink.com 1.10,2013-01-29 17:11:00,
2013-01-29 10:26:00,53.9,37.0,30.16,SE,125,0.0,4.0,53,0.00,,,0.00,weatherlink.com 1.10,2013-01-29 17:26:00,
2013-01-29 10:41:00,55.3,36.0,30.17,SW,235,1.0,4.0,48,0.00,,,0.00,weatherlink.com 1.10,2013-01-29 17:41:00,
2013-01-29 10:56:00,56.2,35.0,30.17,West,274,1.0,4.0,46,0.00,,,0.00,weatherlink.com 1.10,2013-01-29 17:56:00,
2013-01-29 11:11:00,55.8,36.0,30.17,West,280,1.0,4.0,47,0.00,,,0.00,weatherlink.com 1.10,2013-01-29 18:11:00,
2013-01-29 11:26:00,56.8,35.0,30.17,West,264,1.0,4.0,44,0.00,,,0.00,weatherlink.com 1.10,2013-01-29 18:26:00,
2013-01-29 11:41:00,58.0,35.0,30.16,SW,226,1.0,4.0,42,0.00,,,0.00,weatherlink.com 1.10,2013-01-29 18:41:00,
2013-01-29 11:56:00,59.2,36.0,30.17,SW,236,2.0,3.0,42,0.00,,,0.00,weatherlink.com 1.10,2013-01-29 18:56:00,
2013-01-29 12:11:00,59.0,35.0,30.16,West,274,2.0,5.0,41,0.00,,,0.00,weatherlink.com 1.10,2013-01-29 19:11:00,
2013-01-29 12:26:00,58.4,35.0,30.16,WNW,293,3.0,6.0,41,0.00,,,0.00,weatherlink.com 1.10,2013-01-29 19:26:00,
2013-01-29 12:41:00,59.1,35.0,30.15,WSW,238,2.0,5.0,40,0.00,,,0.00,weatherlink.com 1.10,2013-01-29 19:41:00,
2013-01-29 12:56:00,60.2,35.0,30.14,SW,219,5.0,6.0,39,0.00,,,0.00,weatherlink.com 1.10,2013-01-29 19:56:00,
2013-01-29 13:11:00,60.4,35.0,30.13,WNW,290,2.0,6.0,39,0.00,,,0.00,weatherlink.com 1.10,2013-01-29 20:11:00,
2013-01-29 13:26:00,61.0,32.0,30.13,WNW,285,4.0,9.0,34,0.00,,,0.00,weatherlink.com 1.10,2013-01-29 20:26:00,
2013-01-29 13:41:00,61.0,34.0,30.12,West,278,7.0,8.0,36,0.00,,,0.00,weatherlink.com 1.10,2013-01-29 20:41:00,
2013-01-29 13:56:00,60.9,35.0,30.11,WNW,289,3.0,8.0,38,0.00,,,0.00,weatherlink.com 1.10,2013-01-29 20:56:00,
2013-01-29 14:11:00,61.6,35.0,30.11,WNW,283,2.0,8.0,37,0.00,,,0.00,weatherlink.com 1.10,2013-01-29 21:11:00,
2013-01-29 14:27:00,61.3,35.0,30.11,WNW,286,5.0,10.0,37,0.00,,,0.00,weatherlink.com 1.10,2013-01-29 21:27:00,
2013-01-29 14:42:00,62.0,35.0,30.10,NW,307,4.0,7.0,36,0.00,,,0.00,weatherlink.com 1.10,2013-01-29 21:42:00,
2013-01-29 14:57:00,62.4,35.0,30.09,WNW,283,8.0,8.0,36,0.00,,,0.00,weatherlink.com 1.10,2013-01-29 21:57:00,
2013-01-29 15:12:00,62.3,35.0,30.09,WSW,246,4.0,7.0,36,0.00,,,0.00,weatherlink.com 1.10,2013-01-29 22:12:00,
2013-01-29 15:27:00,62.6,35.0,30.09,WSW,253,7.0,7.0,36,0.00,,,0.00,weatherlink.com 1.10,2013-01-29 22:27:00,
2013-01-29 15:42:00,63.2,36.0,30.08,SSW,200,5.0,8.0,37,0.00,,,0.00,weatherlink.com 1.10,2013-01-29 22:42:00,
2013-01-29 15:57:00,63.5,35.0,30.08,WSW,256,2.0,6.0,35,0.00,,,0.00,weatherlink.com 1.10,2013-01-29 22:57:00,
2013-01-29 16:12:00,63.2,35.0,30.08,NW,312,1.0,5.0,35,0.00,,,0.00,weatherlink.com 1.10,2013-01-29 23:12:00,
2013-01-29 16:27:00,63.7,35.0,30.09,South,181,3.0,5.0,35,0.00,,,0.00,weatherlink.com 1.10,2013-01-29 23:27:00,
2013-01-29 16:42:00,64.7,36.0,30.09,WSW,248,3.0,4.0,35,0.00,,,0.00,weatherlink.com 1.10,2013-01-29 23:42:00,
2013-01-29 16:57:00,63.5,35.0,30.09,West,264,2.0,6.0,35,0.00,,,0.00,weatherlink.com 1.10,2013-01-29 23:57:00,
2013-01-29 17:12:00,63.0,35.0,30.09,SW,232,4.0,4.0,36,0.00,,,0.00,weatherlink.com 1.10,2013-01-30 00:12:00,
2013-01-29 17:27:00,62.5,36.0,30.09,WSW,238,3.0,4.0,38,0.00,,,0.00,weatherlink.com 1.10,2013-01-30 00:27:00,
2013-01-29 17:42:00,61.2,37.0,30.09,West,277,1.0,5.0,40,0.00,,,0.00,weatherlink.com 1.10,2013-01-30 00:42:00,
2013-01-29 17:57:00,60.3,36.0,30.10,WSW,257,1.0,3.0,41,0.00,,,0.00,weatherlink.com 1.10,2013-01-30 00:57:00,
2013-01-29 18:12:00,59.2,37.0,30.10,WSW,245,1.0,2.0,44,0.00,,,0.00,weatherlink.com 1.10,2013-01-30 01:12:00,
2013-01-29 18:27:00,58.3,37.0,30.10,WSW,238,0.0,1.0,45,0.00,,,0.00,weatherlink.com 1.10,2013-01-30 01:27:00,
2013-01-29 18:42:00,56.3,39.0,30.11,SSE,156,0.0,2.0,53,0.00,,,0.00,weatherlink.com 1.10,2013-01-30 01:42:00,
2013-01-29 18:58:00,54.9,39.0,30.11,SSE,165,1.0,2.0,56,0.00,,,0.00,weatherlink.com 1.10,2013-01-30 01:58:00,
2013-01-29 19:12:00,54.2,39.0,30.12,South,174,0.0,2.0,56,0.00,,,0.00,weatherlink.com 1.10,2013-01-30 02:12:00,
2013-01-29 19:27:00,53.9,38.0,30.13,SSE,155,0.0,2.0,56,0.00,,,0.00,weatherlink.com 1.10,2013-01-30 02:27:00,
2013-01-29 19:42:00,53.5,38.0,30.13,SSE,153,0.0,1.0,56,0.00,,,0.00,weatherlink.com 1.10,2013-01-30 02:42:00,
2013-01-29 19:57:00,53.4,38.0,30.14,SSE,150,0.0,2.0,56,0.00,,,0.00,weatherlink.com 1.10,2013-01-30 02:57:00,
2013-01-29 20:12:00,53.6,37.0,30.14,SE,142,1.0,2.0,53,0.00,,,0.00,weatherlink.com 1.10,2013-01-30 03:12:00,
2013-01-29 20:27:00,52.8,38.0,30.14,SE,132,0.0,3.0,58,0.00,,,0.00,weatherlink.com 1.10,2013-01-30 03:27:00,
2013-01-29 20:42:00,52.9,35.0,30.15,ESE,117,1.0,3.0,52,0.00,,,0.00,weatherlink.com 1.10,2013-01-30 03:42:00,
2013-01-29 20:57:00,52.4,36.0,30.15,SSE,148,1.0,3.0,54,0.00,,,0.00,weatherlink.com 1.10,2013-01-30 03:57:00,
2013-01-29 21:12:00,52.0,36.0,30.15,South,170,0.0,3.0,54,0.00,,,0.00,weatherlink.com 1.10,2013-01-30 04:12:00,
2013-01-29 21:27:00,51.4,35.0,30.16,SE,136,0.0,2.0,54,0.00,,,0.00,weatherlink.com 1.10,2013-01-30 04:27:00,
2013-01-29 21:42:00,51.3,36.0,30.17,SE,128,2.0,6.0,56,0.00,,,0.00,weatherlink.com 1.10,2013-01-30 04:42:00,
2013-01-29 21:57:00,51.5,38.0,30.17,South,179,4.0,7.0,60,0.00,,,0.00,weatherlink.com 1.10,2013-01-30 04:57:00,
2013-01-29 22:12:00,51.5,38.0,30.17,South,189,3.0,6.0,61,0.00,,,0.00,weatherlink.com 1.10,2013-01-30 05:12:00,
2013-01-29 22:27:00,51.2,38.0,30.18,South,176,4.0,6.0,62,0.00,,,0.00,weatherlink.com 1.10,2013-01-30 05:27:00,
2013-01-29 22:42:00,50.9,39.0,30.18,SSW,211,3.0,6.0,64,0.00,,,0.00,weatherlink.com 1.10,2013-01-30 05:42:00,
2013-01-29 22:57:00,50.7,40.0,30.19,SE,135,3.0,7.0,66,0.00,,,0.00,weatherlink.com 1.10,2013-01-30 05:57:00,
2013-01-29 23:12:00,50.7,40.0,30.20,SE,127,2.0,6.0,67,0.00,,,0.00,weatherlink.com 1.10,2013-01-30 06:12:00,
2013-01-29 23:27:00,50.5,40.0,30.20,SE,145,1.0,3.0,68,0.00,,,0.00,weatherlink.com 1.10,2013-01-30 06:27:00,
2013-01-29 23:42:00,50.2,40.0,30.21,SSE,167,2.0,3.0,69,0.00,,,0.00,weatherlink.com 1.10,2013-01-30 06:42:00,
2013-01-29 23:57:00,49.7,40.0,30.21,SSE,150,0.0,2.0,70,0.00,,,0.00,weatherlink.com 1.10,2013-01-30 06:57:00,